[[{"header":{"parameterUnit":"m.s-1","parameterCategory":2,"la1":30.2992,"la2":30.254,"lo1":-89.0895,"lo2":-89.0443,"dy":0.0025,"dx":0.0025,"nx":19,"ny":19,"refTime":"2026-04-12T03:00:00:Z","depth":"0","parameterNumber":2,"parameterNumberName":"U-component_of_CURRENTS"},"data":[0,0,0,0.0451,0.0452,0.0459,0.0459,0.0456,0.0456,0,0,0,0,0,0,0,0,0,0,0,0.045,0.045,0.0451,0.0452,0.0459,0.0459,0.0456,0.0456,0,0,0,0,0,0,0,0,0,0,0,0.045,0.045,0.045,0.0452,0.0459,0.0459,0.0456,0.0452,0,0,0,0,0,0,0,0,0,0,0.0446,0.0451,0.045,0.045,0.0452,0.0459,0.0459,0.0452,0.0452,0.0452,0,0.046,0,0.0461,0.0457,0.0457,0,0,0,0.0444,0.0451,0.0452,0.045,0.0452,0.0459,0.0454,0.0452,0.0453,0.0452,0.046,0.046,0.0461,0.0457,0.0457,0.0416,0.0416,0,0,0.0444,0.045,0.0452,0.0452,0.0464,0.0454,0.0454,0.0452,0.0457,0.046,0.046,0.0461,0.0457,0.0457,0.0417,0.0416,0,0,0,0.0448,0.045,0.0451,0.0452,0.0457,0.0454,0.0455,0.0457,0.0458,0.046,0.0461,0.0457,0.0457,0.0417,0.0417,0.0422,0,0,0,0.0447,0.0452,0.0451,0.0454,0.0457,0.046,0.0459,0.0458,0.0458,0.0461,0.0457,0.0457,0.0418,0.0417,0.0423,0.0498,0,0,0,0.0448,0.0452,0.0456,0.0454,0.0461,0.046,0.046,0.0458,0.0459,0.0457,0.0457,0.0418,0.0417,0.0424,0.0497,0.0574,0,0,0,0.0449,0.045,0.0456,0.0446,0.0461,0.042,0.046,0.0439,0.0432,0.0457,0.0418,0.0417,0.0425,0.0496,0.0572,0.068,0.0698,0,0,0.0446,0.045,0.0438,0.0443,0.0412,0.0418,0.0389,0.0409,0.0416,0.0418,0.0417,0.0423,0.0497,0.0574,0.0616,0.0637,0,0,0,0.0432,0.0431,0.0416,0.0405,0.0377,0.0393,0.0378,0.0379,0.0392,0.0411,0.0399,0.0447,0.0495,0.0554,0.0569,0.0642,0.0412,0.0412,0.0412,0.0448,0.0424,0.0413,0.039,0.0372,0.0361,0.0376,0.0382,0.0355,0.0358,0.043,0.0472,0.0528,0.0543,0.0613,0.0367,0.0367,0.0367,0.0367,0.0454,0.0455,0.0438,0.0426,0.0427,0.0413,0.041,0.0408,0.0453,0.0406,0.0451,0.053,0.0561,0.063,0.0367,0.0367,0.0367,0.0367,0.0367,0.0476,0.0478,0.0477,0.0479,0.0499,0.0486,0.0541,0.0528,0.0522,0.0556,0.0657,0.0658,0.0747,0.0577,0.0578,0.0578,0.0579,0.0579,0.058,0.0512,0.0509,0.0522,0.0534,0.0548,0.0585,0.0628,0.0671,0.0742,0.0733,0.0734,0.0775,0.0539,0.0563,0.0589,0.0588,0.0586,0.0585,0.0585,0.0527,0.0538,0.0552,0.0568,0.06,0.0647,0.0707,0.0855,0.0922,0.0987,0.1022,0.0826,0.0865,0.0852,0.0884,0.0992,0.0992,0.0992,0.0993,0.0544,0.0548,0.0566,0.0584,0.0622,0.0665,0.08,0.0949,0.1136,0.1237,0.1228,0.1172,0.1152,0.1203,0.1183,0.1219,0.141,0.1411,0.1411,0.055,0.0556,0.0566,0.0581,0.0617,0.0684,0.0808,0.0994,0.1308,0.143,0.1312,0.1294,0.1205,0.1169,0.1235,0.12,0.1253,0,0]},{"header":{"parameterUnit":"m.s-1","parameterCategory":2,"la1":30.2992,"la2":30.254,"lo1":-89.0895,"lo2":-89.0443,"dy":0.0025,"dx":0.0025,"nx":19,"ny":19,"refTime":"2026-04-12T03:00:00:Z","depth":"0","parameterNumber":3,"parameterNumberName":"V-component_of_CURRENTS"},"data":[0,0,0,-0.0064,-0.0065,-0.0097,-0.0098,-0.0137,-0.0137,0,0,0,0,0,0,0,0,0,0,0,-0.0053,-0.0053,-0.0064,-0.0065,-0.0097,-0.0098,-0.0137,-0.0137,0,0,0,0,0,0,0,0,0,0,0,-0.0052,-0.0053,-0.0053,-0.0065,-0.0097,-0.0098,-0.0137,-0.0113,0,0,0,0,0,0,0,0,0,0,-0.0082,-0.0072,-0.0053,-0.0053,-0.0065,-0.0097,-0.0098,-0.0112,-0.0115,-0.012,0,-0.0124,0,-0.013,-0.0139,-0.0139,0,0,0,-0.0068,-0.007,-0.0077,-0.0053,-0.0065,-0.0097,-0.0084,-0.0114,-0.0117,-0.0124,-0.0124,-0.0126,-0.0131,-0.014,-0.014,-0.0153,-0.0153,0,0,-0.0066,-0.0061,-0.0075,-0.0079,-0.0072,-0.0083,-0.0085,-0.0116,-0.0118,-0.0124,-0.0127,-0.0131,-0.014,-0.014,-0.0153,-0.0153,0,0,0,-0.0059,-0.006,-0.0066,-0.0077,-0.0083,-0.0083,-0.0086,-0.0117,-0.0119,-0.0127,-0.0132,-0.014,-0.014,-0.0153,-0.0153,-0.0098,0,0,0,-0.0058,-0.0055,-0.0065,-0.0063,-0.0082,-0.0101,-0.0087,-0.0117,-0.012,-0.0132,-0.014,-0.0141,-0.0153,-0.0153,-0.01,-0.0069,0,0,0,-0.0051,-0.0055,-0.0057,-0.0063,-0.0075,-0.0101,-0.0104,-0.0118,-0.0123,-0.0139,-0.0141,-0.0153,-0.0153,-0.0101,-0.0072,0.0007,0,0,0,-0.0046,-0.0053,-0.0057,-0.0065,-0.0075,-0.0088,-0.0104,-0.0119,-0.0132,-0.014,-0.0153,-0.0153,-0.0102,-0.0074,0.0004,0.0164,0.019,0,0,-0.0051,-0.0053,-0.0058,-0.0062,-0.0073,-0.0084,-0.0083,-0.0107,-0.0129,-0.0144,-0.0144,-0.0099,-0.0073,0.0006,0.0179,0.0205,0,0,0,-0.0057,-0.006,-0.0064,-0.0072,-0.008,-0.0069,-0.0094,-0.0093,-0.0099,-0.0135,-0.0109,-0.0095,-0.0046,0.0044,0.0064,0.0003,-0.0152,-0.0152,-0.0152,-0.0057,-0.0061,-0.0065,-0.0068,-0.0068,-0.0064,-0.0046,-0.0048,-0.0082,-0.0072,-0.0057,0.0028,0.0123,0.014,0.0074,-0.007,-0.007,-0.007,-0.007,-0.0055,-0.005,-0.0053,-0.0057,-0.0042,-0.0036,-0.0004,-0.0003,0.0043,-0.0014,0.0031,0.0087,0.0167,0.0087,-0.0066,-0.0067,-0.0067,-0.0068,-0.0068,-0.0047,-0.0042,-0.0049,-0.0038,-0.0018,-0.0002,0.0092,0.0089,0.0096,0.0137,0.0254,0.0255,0.0196,0.0166,0.0166,0.0167,0.0167,0.0168,0.0168,-0.0025,-0.0031,-0.0016,-0.001,0.0011,0.0069,0.015,0.0231,0.0328,0.0337,0.0338,0.0227,0.0101,0.0104,0.0175,0.0174,0.0173,0.0172,0.0172,0.0002,0.0,0.0031,0.005,0.0118,0.0261,0.031,0.0539,0.0596,0.0686,0.0517,0.0459,0.0468,0.0452,0.0463,0.0624,0.0624,0.0624,0.0624,0.003,0.0028,0.0097,0.0154,0.0251,0.0359,0.0656,0.0803,0.0808,0.0768,0.0662,0.062,0.0604,0.0613,0.0594,0.0605,0.0797,0.0797,0.0797,0.0064,0.008,0.015,0.0205,0.0317,0.052,0.0827,0.1007,0.0935,0.0787,0.0543,0.0536,0.0445,0.0426,0.0414,0.0392,0.04,0,0]}],[{"header":{"parameterUnit":"m.s-1","parameterCategory":2,"la1":30.2992,"la2":30.254,"lo1":-89.0895,"lo2":-89.0443,"dy":0.0025,"dx":0.0025,"nx":19,"ny":19,"refTime":"2026-04-12T03:00:00:Z","depth":"2","parameterNumber":2,"parameterNumberName":"U-component_of_CURRENTS"},"data":[0,0,0,0.0543,0.0544,0.0557,0.0557,0.0564,0.0564,0,0,0,0,0,0,0,0,0,0,0,0.0538,0.0539,0.0543,0.0544,0.0557,0.0557,0.0564,0.0564,0,0,0,0,0,0,0,0,0,0,0,0.0538,0.0539,0.0539,0.0544,0.0557,0.0557,0.0564,0.0555,0,0,0,0,0,0,0,0,0,0,0.0543,0.0543,0.0539,0.0539,0.0544,0.0557,0.0557,0.0555,0.0556,0.0558,0,0.0565,0,0.0568,0.0565,0.0565,0,0,0,0.0537,0.0543,0.0546,0.0539,0.0544,0.0557,0.0549,0.0555,0.0556,0.0559,0.0565,0.0566,0.0568,0.0565,0.0565,0.0534,0.0533,0,0,0.0537,0.0539,0.0546,0.0547,0.0555,0.0549,0.055,0.0556,0.056,0.0565,0.0566,0.0568,0.0565,0.0566,0.0534,0.0534,0,0,0,0.0539,0.0539,0.0542,0.0547,0.0552,0.0549,0.055,0.0559,0.0561,0.0566,0.0568,0.0566,0.0566,0.0535,0.0534,0.0535,0,0,0,0.0538,0.054,0.0542,0.0543,0.0552,0.0558,0.0554,0.0561,0.0561,0.0568,0.0566,0.0566,0.0535,0.0534,0.0537,0.0607,0,0,0,0.0537,0.054,0.0544,0.0543,0.0552,0.0558,0.0559,0.0561,0.0563,0.0565,0.0566,0.0535,0.0534,0.0537,0.0606,0.0683,0,0,0,0.0535,0.0535,0.0544,0.0535,0.0552,0.0518,0.0559,0.0543,0.0539,0.0566,0.0535,0.0534,0.0538,0.0606,0.0681,0.0818,0.0838,0,0,0.053,0.0535,0.0525,0.0533,0.0508,0.0515,0.0492,0.0516,0.0525,0.0533,0.0532,0.0536,0.0606,0.0682,0.0756,0.0779,0,0,0,0.0518,0.0517,0.0505,0.0499,0.0477,0.0495,0.0485,0.0488,0.0503,0.0521,0.0514,0.056,0.0607,0.0684,0.0701,0.0529,0.0529,0.0529,0.0529,0.0525,0.0508,0.05,0.0485,0.047,0.0466,0.0484,0.0493,0.0468,0.0471,0.0541,0.0582,0.0657,0.0673,0.0481,0.0481,0.0481,0.0481,0.0481,0.053,0.0533,0.0522,0.0514,0.052,0.0509,0.0515,0.0515,0.0563,0.0517,0.0562,0.0657,0.0692,0.048,0.0481,0.0481,0.0481,0.0481,0.0481,0.0548,0.0552,0.0553,0.0559,0.0581,0.0575,0.0636,0.0627,0.0624,0.0659,0.0781,0.0782,0.0654,0.0679,0.0679,0.068,0.068,0.0681,0.0681,0.0579,0.0578,0.0593,0.0607,0.0624,0.0666,0.0717,0.0766,0.085,0.0853,0.0854,0.0651,0.0644,0.0667,0.0691,0.0689,0.0688,0.0687,0.0686,0.0592,0.0603,0.062,0.0637,0.068,0.0747,0.0806,0.0979,0.1046,0.1124,0.0969,0.0959,0.1002,0.0988,0.102,0.1134,0.1134,0.1134,0.1134,0.0607,0.0611,0.0635,0.0659,0.071,0.0775,0.0949,0.1091,0.1182,0.118,0.1176,0.1109,0.1092,0.1134,0.1117,0.1148,0.1296,0.1296,0.1295,0.0613,0.0621,0.0635,0.066,0.0712,0.0815,0.0994,0.1117,0.1166,0.1289,0.1077,0.1169,0.1059,0.1037,0.109,0.1067,0.1113,0,0]},{"header":{"parameterUnit":"m.s-1","parameterCategory":2,"la1":30.2992,"la2":30.254,"lo1":-89.0895,"lo2":-89.0443,"dy":0.0025,"dx":0.0025,"nx":19,"ny":19,"refTime":"2026-04-12T03:00:00:Z","depth":"2","parameterNumber":3,"parameterNumberName":"V-component_of_CURRENTS"},"data":[0,0,0,-0.0106,-0.0106,-0.0138,-0.0138,-0.018,-0.018,0,0,0,0,0,0,0,0,0,0,0,-0.0095,-0.0096,-0.0106,-0.0106,-0.0138,-0.0138,-0.018,-0.018,0,0,0,0,0,0,0,0,0,0,0,-0.0095,-0.0096,-0.0096,-0.0107,-0.0138,-0.0138,-0.018,-0.0157,0,0,0,0,0,0,0,0,0,0,-0.0126,-0.0117,-0.0095,-0.0096,-0.0107,-0.0138,-0.0138,-0.0155,-0.0158,-0.0164,0,-0.0167,0,-0.0173,-0.0183,-0.0183,0,0,0,-0.0111,-0.0115,-0.012,-0.0096,-0.0107,-0.0138,-0.0125,-0.0157,-0.016,-0.0168,-0.0168,-0.017,-0.0173,-0.0183,-0.0183,-0.0194,-0.0193,0,0,-0.0109,-0.0105,-0.0118,-0.0122,-0.0113,-0.0124,-0.0126,-0.0159,-0.0162,-0.0168,-0.0171,-0.0174,-0.0183,-0.0183,-0.0194,-0.0194,0,0,0,-0.0101,-0.0104,-0.0109,-0.012,-0.0125,-0.0125,-0.0127,-0.0161,-0.0162,-0.0171,-0.0175,-0.0183,-0.0184,-0.0194,-0.0194,-0.0134,0,0,0,-0.01,-0.0099,-0.0108,-0.0107,-0.0124,-0.0144,-0.0129,-0.016,-0.0163,-0.0174,-0.0183,-0.0184,-0.0194,-0.0194,-0.0136,-0.0112,0,0,0,-0.0094,-0.0098,-0.0101,-0.0106,-0.0117,-0.0143,-0.0146,-0.0161,-0.0165,-0.0183,-0.0184,-0.0194,-0.0194,-0.0138,-0.0115,-0.0047,0,0,0,-0.0091,-0.0096,-0.01,-0.0107,-0.0117,-0.0127,-0.0146,-0.016,-0.0174,-0.0183,-0.0194,-0.0194,-0.0139,-0.0117,-0.005,0.0004,0.0021,0,0,-0.0095,-0.0096,-0.0099,-0.0104,-0.0111,-0.0124,-0.0118,-0.0144,-0.0169,-0.0185,-0.0185,-0.0136,-0.0115,-0.0048,0.0025,0.0042,0,0,0,-0.0099,-0.0101,-0.0104,-0.011,-0.0116,-0.0104,-0.0129,-0.0128,-0.0134,-0.0175,-0.0145,-0.0134,-0.0093,-0.0067,-0.0054,-0.0192,-0.0192,-0.0192,-0.0192,-0.01,-0.0102,-0.0104,-0.0103,-0.0102,-0.0095,-0.0077,-0.008,-0.0113,-0.0103,-0.0093,-0.0012,0.0015,0.0026,-0.01,-0.01,-0.01,-0.01,-0.01,-0.0098,-0.0094,-0.0093,-0.0096,-0.0077,-0.0069,-0.0034,-0.0032,0.0009,-0.0044,-0.0006,-0.0015,0.0044,-0.0095,-0.0096,-0.0097,-0.0097,-0.0097,-0.0098,-0.0094,-0.0088,-0.0094,-0.0081,-0.0058,-0.0038,0.0048,0.005,0.0057,0.0095,0.0133,0.0132,0.0043,0.0119,0.0119,0.0119,0.012,0.012,0.012,-0.0077,-0.0081,-0.0067,-0.0058,-0.0038,0.0017,0.0095,0.0166,0.0219,0.0203,0.0203,0.0062,0.0055,0.0056,0.0127,0.0125,0.0125,0.0124,0.0124,-0.0054,-0.0055,-0.0027,-0.001,0.0053,0.0156,0.0214,0.0371,0.0418,0.0466,0.0277,0.0271,0.0263,0.0252,0.0257,0.0377,0.0377,0.0377,0.0377,-0.0029,-0.0031,0.0028,0.0077,0.0158,0.0231,0.0403,0.0381,0.0372,0.0256,0.026,0.0196,0.0191,0.0173,0.0163,0.0164,0.0259,0.0258,0.0257,0.0001,0.0014,0.0072,0.0117,0.0208,0.0344,0.0454,0.0369,0.0241,0.024,0.0113,0.0393,0.031,0.0297,0.0274,0.0257,0.026,0,0]}],[{"header":{"parameterUnit":"m.s-1","parameterCategory":2,"la1":30.2992,"la2":30.254,"lo1":-89.0895,"lo2":-89.0443,"dy":0.0025,"dx":0.0025,"nx":19,"ny":19,"refTime":"2026-04-12T03:00:00:Z","depth":"4","parameterNumber":2,"parameterNumberName":"U-component_of_CURRENTS"},"data":[0,0,0,0.0572,0.0575,0.0698,0.0698,0.0841,0.0843,0,0,0,0,0,0,0,0,0,0,0,0.0522,0.0523,0.0572,0.0575,0.0698,0.0698,0.0841,0.0843,0,0,0,0,0,0,0,0,0,0,0,0.0522,0.0523,0.0524,0.0575,0.0698,0.0699,0.0841,0.0752,0,0,0,0,0,0,0,0,0,0,0.0634,0.0597,0.0523,0.0524,0.0576,0.0698,0.0699,0.0748,0.0757,0.0781,0,0.0797,0,0.0826,0.0852,0.0852,0,0,0,0.0577,0.0589,0.0616,0.0524,0.0577,0.0697,0.0643,0.0753,0.0764,0.0793,0.0799,0.0805,0.0828,0.0852,0.0853,0.1013,0.1014,0,0,0.057,0.0554,0.0609,0.0623,0.0606,0.0639,0.0647,0.076,0.0773,0.08,0.0809,0.0831,0.0853,0.0854,0.1012,0.1013,0,0,0,0.0549,0.0549,0.0574,0.0617,0.0642,0.0642,0.0651,0.0768,0.0775,0.081,0.0832,0.0854,0.0856,0.1011,0.1012,0.0857,0,0,0,0.0545,0.0537,0.057,0.0563,0.064,0.0712,0.0657,0.0767,0.0781,0.0832,0.0854,0.0857,0.101,0.1012,0.0859,0.0893,0,0,0,0.0517,0.0534,0.0545,0.0562,0.0614,0.071,0.0724,0.077,0.0794,0.0852,0.0857,0.101,0.1012,0.0861,0.0895,0.0955,0,0,0,0.05,0.0511,0.0545,0.0569,0.0613,0.0699,0.0724,0.0808,0.0861,0.0855,0.1011,0.1012,0.0862,0.0896,0.0954,0.0887,0,0,0,0.0499,0.0511,0.0523,0.0556,0.0597,0.0682,0.0724,0.0806,0.0894,0.097,0.0975,0.0858,0.0895,0.0955,0.0992,0,0,0,0,0.0513,0.0524,0.0543,0.0578,0.0645,0.0689,0.0777,0.0813,0.0883,0.0933,0.0939,0.0972,0.1011,0.0974,0.1021,0.1021,0.102,0.102,0.102,0.0498,0.0519,0.055,0.0582,0.0629,0.071,0.0754,0.0835,0.0869,0.0891,0.0896,0.0926,0.088,0.0909,0.0909,0.0908,0.0907,0.0907,0.0907,0.0508,0.0524,0.0557,0.0595,0.0628,0.0678,0.0739,0.0756,0.0841,0.0852,0.0894,0.0879,0.0893,0.0896,0.0898,0.0899,0.0901,0.0901,0.0902,0.0502,0.0509,0.0547,0.0596,0.064,0.0678,0.0741,0.0769,0.0808,0.0822,0.0875,0.0908,0.0865,0.0841,0.0842,0.0842,0.0843,0.0843,0.0843,0.0477,0.0511,0.0547,0.0605,0.0642,0.07,0.0773,0.0817,0.0845,0.0816,0.0836,0.0909,0.0911,0.0871,0.0849,0.0848,0.0847,0.0846,0.0846,0.0458,0.0481,0.0532,0.0575,0.0665,0.0704,0.0784,0.0835,0.0889,0.0893,0.0825,0.0825,0.0919,0.0924,0.0885,0.0867,0.0867,0.0866,0,0.0442,0.0455,0.0524,0.0581,0.0645,0.0704,0.0748,0.0806,0.0835,0.0801,0.0897,0.0819,0.0818,0.0923,0.0926,0.0881,0,0,0,0.0437,0.046,0.0499,0.0562,0.0628,0.0691,0.076,0.076,0.0815,0.084,0.0844,0.085,0.086,0.0865,0.1014,0.1017,0.0963,0,0]},{"header":{"parameterUnit":"m.s-1","parameterCategory":2,"la1":30.2992,"la2":30.254,"lo1":-89.0895,"lo2":-89.0443,"dy":0.0025,"dx":0.0025,"nx":19,"ny":19,"refTime":"2026-04-12T03:00:00:Z","depth":"4","parameterNumber":3,"parameterNumberName":"V-component_of_CURRENTS"},"data":[0,0,0,0.0077,0.0077,0.0077,0.0077,0.0054,0.0054,0,0,0,0,0,0,0,0,0,0,0,0.0074,0.0075,0.0077,0.0078,0.0077,0.0077,0.0054,0.0054,0,0,0,0,0,0,0,0,0,0,0,0.0074,0.0075,0.0075,0.0078,0.0077,0.0077,0.0054,0.0056,0,0,0,0,0,0,0,0,0,0,0.0058,0.0045,0.0075,0.0075,0.0078,0.0077,0.0077,0.0057,0.0056,0.0053,0,0.0064,0,0.0067,0.0054,0.0054,0,0,0,0.0062,0.0045,0.0069,0.0075,0.0078,0.0077,0.0073,0.0056,0.0056,0.0053,0.0064,0.0063,0.0066,0.0054,0.0054,0.0108,0.0109,0,0,0.0062,0.0048,0.0069,0.0069,0.0091,0.0073,0.0073,0.0056,0.0047,0.0063,0.0063,0.0066,0.0054,0.0054,0.0107,0.0108,0,0,0,0.0073,0.0048,0.0071,0.0069,0.0076,0.0073,0.0073,0.0047,0.0062,0.0062,0.0066,0.0054,0.0053,0.0107,0.0108,0.0079,0,0,0,0.0072,0.0056,0.0071,0.0059,0.0077,0.006,0.0064,0.0063,0.0062,0.0066,0.0054,0.0053,0.0106,0.0107,0.0078,0.0074,0,0,0,0.0072,0.0055,0.0065,0.0059,0.0069,0.0061,0.0073,0.0063,0.0065,0.0054,0.0053,0.0105,0.0107,0.0078,0.0073,0.0078,0,0,0,0.0044,0.0054,0.0064,0.0068,0.007,0.011,0.0073,0.0073,0.0066,0.0054,0.0106,0.0108,0.0077,0.0072,0.0077,0.0007,0,0,0,0.0043,0.0053,0.0056,0.0066,0.0098,0.0108,0.0124,0.0087,0.0092,0.0105,0.0106,0.0079,0.0073,0.0078,0.01,0,0,0,0,0.0047,0.0046,0.0065,0.0071,0.0114,0.0125,0.0115,0.0124,0.0116,0.0099,0.0119,0.0117,0.012,0.008,0.0115,0.0115,0.0115,0.0115,0.0114,0.0013,0.0028,0.0041,0.0066,0.0093,0.0128,0.014,0.015,0.0146,0.0148,0.0122,0.0149,0.0109,0.0153,0.0153,0.0153,0.0153,0.0153,0.0153,0.0006,0.001,0.0017,0.0032,0.0063,0.0078,0.0133,0.0131,0.0155,0.0152,0.0155,0.009,0.0151,0.0151,0.0152,0.0152,0.0152,0.0152,0.0152,-0.0014,-0.0005,-0.0013,0.0001,0.0012,0.0054,0.0081,0.012,0.0133,0.0137,0.01,0.0144,0.0112,0.0131,0.0131,0.0131,0.0131,0.0131,0.0131,-0.002,-0.0021,-0.0025,-0.0012,-0.0006,0.0021,0.0061,0.0059,0.0084,0.008,0.0129,0.0142,0.0143,0.0114,0.0131,0.0131,0.0131,0.0131,0.0131,-0.003,-0.003,-0.003,-0.003,-0.0008,0.0014,0.0047,0.0014,0.0015,-0.0003,0.0056,0.006,0.0065,0.0068,0.0036,0.0031,0.003,0.003,0,-0.0036,-0.0033,-0.0049,-0.0046,-0.0029,0.0008,-0.0018,-0.0035,-0.0024,-0.0004,0.0019,0.0089,0.0091,0.01,0.0101,0.0065,0,0,0,-0.0041,-0.0046,-0.0071,-0.0073,-0.0055,-0.0038,-0.0029,-0.0056,0.001,-0.0078,0.0008,0.0014,0.0018,0.0132,0.015,0.0151,0.0105,0,0]}]]